[[{"header":{"parameterUnit":"m.s-1","parameterCategory":1,"la1":30.2991,"la2":30.254,"lo1":-89.0895,"lo2":-89.0444,"dy":0.0017,"dx":0.0017,"nx":28,"ny":28,"refTime":"2024-08-30T21:00:00:Z","depth":0,"parameterNumber":2,"parameterNumberName":"U-component_of_WINDS"},"data":[0,0,0,0,0,0,0,0,0,0,0,0,0,0,0,0,0,0,0,0,0,0,0,0,0,0,0,0,0,0,0,0,0,0,0,0,0,0,0,0,0,0,0,0,0,0,0,0,0,0,0,0,0,0,0,0,0,0,-5.0052,-5.0052,0,-5.0109,-5.011,-5.011,-4.997,-4.9966,-4.9961,-4.9957,-5.0016,-5.0022,-5.0027,0,0,0,0,0,0,0,0,0,0,0,0,0,-4.982,-4.9825,-5.0052,-5.0052,-5.0053,-5.0109,-5.011,-5.011,-4.9971,-4.9966,-4.996,-4.9955,-5.0014,-5.0021,-5.0028,0,0,0,0,0,0,0,0,0,0,0,0,0,-4.9904,-4.9827,-5.0051,-4.999,-4.9985,-5.0109,-5.011,-5.0111,-4.9972,-4.9965,-4.9959,-4.9953,-5.0012,-5.002,-5.0029,-5.0214,0,0,-5.0055,-5.0058,0,0,0,0,0,0,0,0,-4.9899,-4.9912,-4.9998,-4.9995,-4.9989,-5.0026,-5.0049,-5.0145,-4.9974,-4.9977,-4.9957,-4.9949,-5.0025,-5.0032,-5.0057,-5.0217,-5.022,-5.0056,-5.0061,-5.0064,-5.0067,0,0,0,0,0,0,0,-4.9893,-4.9909,-5.0074,-5.0,-4.9994,-4.9959,-4.9964,-5.0067,-5.0037,-4.9976,-4.9966,-4.9975,-5.0021,-5.0049,-5.0057,-5.0221,-5.0055,-5.0063,-5.0068,-5.0072,-5.0533,-5.054,0,0,0,0,0,0,-4.9896,-4.9905,-5.0072,-5.0076,-4.9927,-4.9969,-4.9974,-5.0021,-5.0036,-5.0032,-4.9981,-4.9968,-5.0038,-5.0048,-5.0059,-5.0275,-5.0064,-5.0072,-5.0077,-5.0526,-5.0535,-5.0542,0,0,0,0,0,0,-4.9891,-4.9912,-5.007,-4.9988,-5.0005,-4.998,-5.0034,-5.0025,-5.0053,-5.0039,-5.0033,-5.0015,-5.0033,-5.0047,-5.0176,-5.0275,-5.0076,-5.0084,-5.0517,-5.0529,-5.0538,-5.071,0,0,0,0,0,0,-4.9885,-4.9911,-4.9982,-4.999,-5.001,-5.0187,-5.004,-5.0031,-5.0068,-5.0053,-5.007,-5.0066,-5.0029,-5.0164,-5.0185,-5.0283,-5.0091,-5.0508,-5.0522,-5.0535,-5.0695,-5.0725,-5.075,0,0,0,0,0,-4.9877,-5.0028,-4.9986,-5.0007,-5.0098,-5.0193,-5.0204,-5.0158,-5.0077,-5.0147,-5.0138,-5.0066,-5.0262,-5.0179,-5.02,-5.0303,-5.0502,-5.0518,-5.0534,-5.0683,-5.0719,-5.075,0,0,0,0,0,0,-5.0032,-5.0028,-4.9981,-5.014,-5.0168,-5.0169,-5.0256,-5.0199,-5.025,-5.0233,-5.0174,-5.0179,-5.0319,-5.0324,-5.0232,-5.0482,-5.0368,-5.0389,-5.0473,-5.0508,-5.0535,-5.0529,-5.0098,0,0,0,0,0,-5.0084,-5.0162,-5.0155,-5.0295,-5.0312,-5.0282,-5.0322,-5.0284,-5.0311,-5.0322,-5.0322,-5.035,-5.0417,-5.0463,-5.0525,-5.0696,-5.0696,-5.0777,-5.0805,-5.0828,-5.0846,-5.0934,-5.0969,-5.0595,-5.0595,-5.0594,0,0,-5.0194,-5.0201,-5.0254,-5.0326,-5.0344,-5.0424,-5.0293,-5.0385,-5.0444,-5.0336,-5.0456,-5.0458,-5.0486,-5.0636,-5.0702,-5.0645,-5.095,-5.0848,-5.0867,-5.0872,-5.0954,-5.099,-5.1021,-5.0606,-5.0604,-5.0602,0,0,-5.0433,-5.0448,-5.0565,-5.0585,-5.0613,-5.0592,-5.062,-5.0631,-5.0627,-5.0748,-5.0668,-5.0737,-5.0856,-5.0878,-5.0905,-5.1153,-5.1087,-5.1175,-5.1318,-5.1405,-5.1435,-5.146,-5.1546,-5.1578,-5.1194,-5.1194,-5.1194,0,-5.0565,-5.0684,-5.0633,-5.0729,-5.0763,-5.0669,-5.0786,-5.0808,-5.0855,-5.088,-5.0815,-5.096,-5.0972,-5.1125,-5.1185,-5.1211,-5.124,-5.1171,-5.1435,-5.146,-5.1483,-5.1564,-5.1597,-5.1204,-5.1203,-5.1202,-5.1201,0,-5.0843,-5.0927,-5.1018,-5.1065,-5.1109,-5.1216,-5.118,-5.1231,-5.119,-5.1176,-5.1299,-5.1311,-5.1372,-5.1406,-5.1367,-5.1553,-5.1516,-5.1445,-5.1327,-5.153,-5.1605,-5.1635,-5.1219,-5.1215,-5.1212,-5.121,0,0,-5.118,-5.1197,-5.1231,-5.125,-5.1273,-5.1337,-5.1439,-5.1499,-5.1542,-5.1578,-5.1661,-5.1763,-5.1696,-5.1727,-5.169,-5.1766,-5.1958,-5.1684,-5.1684,-5.1732,-5.2161,-5.2213,-5.2249,-5.1916,-5.1922,-5.1927,-5.2158,0,-5.1414,-5.1589,-5.1545,-5.1719,-5.1794,-5.1706,-5.1795,-5.1819,-5.1809,-5.1871,-5.186,-5.1932,-5.184,-5.1857,-5.1929,-5.192,-5.2043,-5.1903,-5.1991,-5.1995,-5.1983,-5.2289,-5.2344,-5.2561,-5.2187,-5.2192,-5.2195,0,-5.171,-5.1756,-5.1936,-5.1946,-5.1976,-5.2057,-5.2106,-5.2168,-5.2193,-5.218,-5.2215,-5.2162,-5.2262,-5.2147,-5.2282,-5.2188,-5.2222,-5.2223,-5.223,-5.2234,-5.2105,-5.2298,-5.263,-5.2661,-5.2242,-5.2238,-5.2235,0,-5.1933,-5.2041,-5.2162,-5.2181,-5.2197,-5.2255,-5.2264,-5.2282,-5.232,-5.2364,-5.2388,-5.2444,-5.2474,-5.2518,-5.2482,-5.2402,-5.2623,-5.2505,-5.2613,-5.2614,-5.2661,-5.2658,-5.2999,-5.2689,-5.2688,-5.2688,-5.2687,0,-5.2197,-5.231,-5.2262,-5.2336,-5.246,-5.241,-5.2533,-5.2532,-5.2549,-5.2621,-5.255,-5.2619,-5.2568,-5.2632,-5.2605,-5.272,-5.2735,-5.2726,-5.2716,-5.273,-5.2731,-5.2749,-5.2732,-5.2696,-5.2694,-5.2693,-5.2691,0,-5.2466,-5.2439,-5.2564,-5.2568,-5.2572,-5.2663,-5.2666,-5.2734,-5.2719,-5.2811,-5.2829,-5.2806,-5.2878,-5.2847,-5.2923,-5.2904,-5.3051,-5.3024,-5.3042,-5.3034,-5.3142,-5.3131,-5.3505,-5.355,-5.3214,-5.3217,-5.322,0,-5.2634,-5.2719,-5.2732,-5.2774,-5.2788,-5.2859,-5.2897,-5.2851,-5.2894,-5.2928,-5.2992,-5.3058,-5.3107,-5.3227,-5.3216,-5.3274,-5.3245,-5.3372,-5.3253,-5.3263,-5.3242,-5.3236,-5.3243,-5.3394,-5.3398,-5.3402,-5.3404,0,-5.2934,-5.2917,-5.2974,-5.3028,-5.3075,-5.3115,-5.3149,-5.3188,-5.3143,-5.3195,-5.3267,-5.3306,-5.3383,-5.3449,-5.3499,-5.3508,-5.3448,-5.3442,-5.3469,-5.3483,-5.3489,-5.3483,-5.3104,-5.3433,-5.343,-5.3428,-5.3426,-5.3425,-5.3156,-5.3226,-5.3245,-5.3312,-5.3332,-5.3365,-5.3429,-5.3422,-5.3481,-5.354,-5.351,-5.3594,-5.3616,-5.3677,-5.3694,-5.3758,-5.3708,-5.3749,-5.3758,-5.3768,-5.3781,-5.3482,-5.3768,-5.3767,-5.3766,-5.3765,-5.3765,0,-5.3449,-5.3457,-5.3519,-5.3568,-5.362,-5.3561,-5.3595,-5.3642,-5.3716,-5.3742,-5.3792,-5.3875,-5.3938,-5.3933,-5.399,-5.4043,-5.4017,-5.4059,-5.4053,-5.4055,-5.3824,-5.3793,-5.4079,-5.4079,-5.4079,-5.4079,-5.4079,-5.4079,-5.3608,-5.3722,-5.3707,-5.3831,-5.3838,-5.392,-5.3944,-5.3973,-5.3993,-5.4088,-5.414,-5.4136,-5.4149,-5.4207,-5.4262,-5.4259,-5.4282,-5.4334,-5.432,-5.4103,-5.4072,-5.4042,-5.4012,-5.434,-5.4341,-5.4546,-5.4547,-5.4549]},{"header":{"parameterUnit":"m.s-1","parameterCategory":1,"la1":30.2991,"la2":30.254,"lo1":-89.0895,"lo2":-89.0444,"dy":0.0017,"dx":0.0017,"nx":28,"ny":28,"refTime":"2024-08-30T21:00:00:Z","depth":0,"parameterNumber":3,"parameterNumberName":"V-component_of_WINDS"},"data":[0,0,0,0,0,0,0,0,0,0,0,0,0,0,0,0,0,0,0,0,0,0,0,0,0,0,0,0,0,0,0,0,0,0,0,0,0,0,0,0,0,0,0,0,0,0,0,0,0,0,0,0,0,0,0,0,0,0,-0.0394,-0.0395,0,-0.0413,-0.0413,-0.0413,-0.0489,-0.049,-0.0492,-0.0494,-0.051,-0.0509,-0.0508,0,0,0,0,0,0,0,0,0,0,0,0,0,-0.0421,-0.042,-0.0394,-0.0395,-0.0395,-0.0413,-0.0413,-0.0414,-0.0488,-0.049,-0.0493,-0.0494,-0.051,-0.0509,-0.0508,0,0,0,0,0,0,0,0,0,0,0,0,0,-0.0421,-0.042,-0.0394,-0.0434,-0.0438,-0.0413,-0.0413,-0.0414,-0.0488,-0.049,-0.0493,-0.0495,-0.0511,-0.0509,-0.0507,-0.0444,0,0,-0.0502,-0.0501,0,0,0,0,0,0,0,0,-0.0421,-0.042,-0.0428,-0.0432,-0.0436,-0.0451,-0.0429,-0.0424,-0.0487,-0.0469,-0.0494,-0.0497,-0.0488,-0.0488,-0.0486,-0.0445,-0.0446,-0.0502,-0.0501,-0.05,-0.05,0,0,0,0,0,0,0,-0.0421,-0.042,-0.0402,-0.0428,-0.0433,-0.045,-0.0453,-0.0428,-0.0464,-0.0471,-0.0476,-0.0478,-0.0491,-0.0488,-0.0487,-0.0446,-0.0502,-0.05,-0.0499,-0.0499,-0.0352,-0.0349,0,0,0,0,0,0,-0.0416,-0.0419,-0.0401,-0.0402,-0.0435,-0.0448,-0.0451,-0.0444,-0.0464,-0.047,-0.0475,-0.0481,-0.0489,-0.0489,-0.0488,-0.0414,-0.05,-0.0498,-0.0497,-0.0355,-0.0351,-0.0348,0,0,0,0,0,0,-0.0416,-0.0413,-0.04,-0.0412,-0.0412,-0.0445,-0.0435,-0.0443,-0.044,-0.0468,-0.0474,-0.0466,-0.0491,-0.049,-0.0454,-0.0415,-0.0498,-0.0496,-0.0358,-0.0353,-0.035,-0.0265,0,0,0,0,0,0,-0.0416,-0.0413,-0.039,-0.0411,-0.0411,-0.0367,-0.0433,-0.0441,-0.0437,-0.0444,-0.046,-0.0466,-0.0493,-0.0456,-0.0452,-0.0414,-0.0495,-0.0361,-0.0356,-0.0351,-0.0272,-0.0259,-0.0248,0,0,0,0,0,-0.0417,-0.0365,-0.0388,-0.0386,-0.0383,-0.0365,-0.0365,-0.0399,-0.0433,-0.041,-0.0428,-0.0465,-0.0421,-0.0452,-0.0448,-0.0409,-0.0364,-0.0357,-0.0351,-0.0277,-0.0261,-0.0248,0,0,0,0,0,0,-0.0338,-0.0369,-0.0395,-0.0349,-0.0354,-0.0378,-0.0349,-0.0381,-0.0375,-0.0383,-0.0424,-0.0427,-0.0384,-0.0394,-0.0428,-0.0348,-0.0398,-0.0391,-0.0343,-0.0329,-0.0317,-0.0315,-0.0493,0,0,0,0,0,-0.0316,-0.0299,-0.0327,-0.0283,-0.0284,-0.0316,-0.0309,-0.0335,-0.0341,-0.0343,-0.0359,-0.0363,-0.0349,-0.034,-0.0329,-0.0274,-0.0277,-0.0245,-0.0233,-0.0223,-0.0215,-0.0184,-0.017,-0.0327,-0.0327,-0.0327,0,0,-0.0268,-0.0283,-0.027,-0.0268,-0.0274,-0.0255,-0.0317,-0.0294,-0.028,-0.034,-0.0306,-0.0317,-0.0324,-0.0278,-0.0258,-0.0284,-0.0173,-0.0215,-0.0206,-0.0204,-0.0176,-0.0161,-0.0148,-0.0323,-0.0324,-0.0324,0,0,-0.0172,-0.0183,-0.0147,-0.0152,-0.0162,-0.0183,-0.0174,-0.0193,-0.0203,-0.017,-0.0214,-0.0197,-0.0174,-0.0177,-0.0175,-0.0078,-0.0112,-0.0074,-0.001,0.002,0.0033,0.0044,0.008,0.0093,-0.0067,-0.0066,-0.0066,0,-0.0112,-0.0085,-0.0124,-0.0098,-0.0095,-0.0149,-0.0112,-0.0115,-0.012,-0.0116,-0.0145,-0.0117,-0.0125,-0.0079,-0.0055,-0.0053,-0.0043,-0.0072,0.0034,0.0044,0.0054,0.0088,0.0102,-0.0062,-0.0062,-0.0063,-0.0063,0,-0.001,0.001,0.004,0.0036,0.0042,0.0074,0.0041,0.0052,0.0026,0.0009,0.0044,0.0032,0.0039,0.0048,0.0023,0.0092,0.0076,0.0041,-0.001,0.0074,0.0106,0.0119,-0.0055,-0.0056,-0.0058,-0.0059,0,0,0.0136,0.0111,0.0123,0.0121,0.0107,0.0122,0.0151,0.0158,0.017,0.0168,0.0193,0.0215,0.0182,0.0184,0.0158,0.0185,0.0265,0.0146,0.0146,0.0171,0.0342,0.037,0.0386,0.0242,0.0244,0.0246,0.0344,0,0.023,0.0278,0.0245,0.03,0.0318,0.0267,0.0293,0.0288,0.0273,0.0287,0.027,0.0286,0.0241,0.0243,0.0266,0.025,0.0299,0.0242,0.0267,0.0268,0.0272,0.0402,0.0432,0.0524,0.0355,0.0357,0.0359,0,0.0345,0.0348,0.0405,0.0389,0.0395,0.0419,0.0424,0.0437,0.0431,0.0418,0.0421,0.0389,0.0418,0.0367,0.0408,0.037,0.0378,0.0371,0.0374,0.0377,0.032,0.041,0.0553,0.0568,0.0378,0.0376,0.0375,0,0.0449,0.0467,0.0504,0.0504,0.0485,0.0503,0.0496,0.0487,0.0494,0.0499,0.0503,0.0511,0.0516,0.0523,0.0495,0.0459,0.0541,0.0486,0.0532,0.0533,0.0553,0.0553,0.0701,0.0555,0.0555,0.0555,0.0554,0,0.0558,0.0595,0.0551,0.0574,0.0614,0.0576,0.0618,0.0605,0.0598,0.0619,0.0575,0.0595,0.0555,0.0572,0.055,0.0588,0.059,0.0582,0.0576,0.0587,0.0589,0.0593,0.0587,0.0558,0.0557,0.0557,0.0556,0,0.0681,0.0652,0.069,0.0668,0.0664,0.0696,0.0678,0.0699,0.068,0.0707,0.0711,0.0683,0.0701,0.0672,0.0686,0.0671,0.0726,0.0709,0.0728,0.0724,0.0773,0.077,0.0931,0.0952,0.0791,0.0792,0.0793,0,0.0753,0.0781,0.0763,0.0773,0.0769,0.0786,0.0793,0.0756,0.0766,0.0761,0.0784,0.0797,0.0807,0.0838,0.0819,0.083,0.0815,0.0871,0.0816,0.0827,0.0818,0.0818,0.0822,0.0883,0.0885,0.0886,0.0887,0,0.0886,0.0871,0.0882,0.0889,0.0898,0.0902,0.0902,0.0914,0.0875,0.0888,0.0905,0.0913,0.0928,0.0943,0.095,0.0943,0.0911,0.0904,0.0916,0.0929,0.094,0.0937,0.0761,0.0901,0.09,0.0899,0.0898,0.0898,0.0988,0.101,0.1002,0.1016,0.1013,0.1015,0.1034,0.1018,0.1031,0.104,0.1018,0.1041,0.1035,0.1041,0.1039,0.1057,0.1033,0.1049,0.1054,0.1059,0.1068,0.0935,0.1058,0.1058,0.1057,0.1057,0.1057,0,0.112,0.1112,0.1125,0.1128,0.114,0.1105,0.1104,0.1117,0.1138,0.1135,0.1145,0.1166,0.1181,0.1163,0.1175,0.1194,0.1179,0.1199,0.1198,0.1198,0.1088,0.1078,0.1211,0.1211,0.121,0.121,0.121,0.121,0.119,0.1228,0.1212,0.1248,0.1239,0.1261,0.1264,0.1266,0.1264,0.1289,0.1301,0.1289,0.1281,0.1292,0.1305,0.1299,0.1307,0.1332,0.1322,0.122,0.1205,0.1191,0.1181,0.1333,0.1334,0.143,0.1431,0.1432]}]]